Tracking 27111 objects as of 29-Mar-2023
HD Live streaming from Space Station
objects crossing your sky now

HAWK-6B

Track HAWK-6B now!
10-day predictions


NORAD ID: 55324
Int'l Code: 2023-011A
Perigee: 550.0 km
Apogee: 557.2 km
Inclination: 40.5 °
Period: 95.6 minutes
Semi major axis: 6924 km
RCS: Unknown
Launch date: January 24, 2023
Source: United States (US)
Launch site: WALLOPS ISLAND (WLPIS)
Your satellite tracking list
Your tracking list is empty




NASA's NSSDC Master Catalog

Two Line Element Set (TLE):
1 55324U 23011A   23087.60574217  .00005640  00000-0  38409-3 0  9990
2 55324  40.5212 283.3634 0005177 286.1535  73.8661 15.06653180  9447
Source of the keplerian elements: AFSPC